Ibiza, Spain

12:56 AM CET on February 08, 2016 (GMT +0100)
Ibiza

Weather History for LEIB - November, 2012

Change the Weather History Date:

Thursday, November 22, 2012

  Actual Average Record
Temperature  
Mean Temperature 60 °F -  
Max Temperature 69 °F 60 °F - ()
Min Temperature 52 °F 49 °F - ()
Degree Days  
Heating Degree Days 4    
Growing Degree Days 10 (Base 50)    
Moisture  
Dew Point 56 °F    
Average Humidity 88    
Maximum Humidity 100    
Minimum Humidity 53    
Precipitation  
Precipitation 0.00 in 0.07 in - ()
Sea Level Pressure  
Sea Level Pressure 30.14 in    
Wind  
Wind Speed 2 mph ()    
Max Wind Speed 8 mph    
Max Gust Speed -    
Visibility 6.5 miles    
Events      
T = Trace of Precipitation, MM = Missing Value Source: Averaged Metar Reports

Daily Weather History Graph

Daily Weather History Graph

Search for Another Location

Airport or City:

Trip Planner

Search our weather history database for the weather conditions in past years. The results will help you decide how hot, cold, wet, or windy it might be!

Date:

Astronomy

Nov. 22, 2012 Rise Set
Actual Time 7:44 AM CET 5:36 PM CET
Civil Twilight 7:16 AM CET 6:05 PM CET
Nautical Twilight 6:43 AM CET 6:37 PM CET
Astronomical Twilight 6:11 AM CET 7:09 PM CET
Moon 2:11 PM CET (11/22) 1:52 AM CET (11/22)
Length of Visible Light 10h 49m
Length of Day
9h 51m
Waxing Gibbous, 69% of the Moon is Illuminated
Nov 22
Waxing Gibbous
Nov 28
Full
Dec 6
Last Quarter
Dec 13
New
Dec 20
First Quarter

Hourly Weather History & Observations

Time (CET) Temp. Dew Point Humidity Pressure Visibility Wind Dir Wind Speed Gust Speed Precip Events Conditions
12:00 AM 55.4 °F 55.4 °F 100% 30.12 in 6.2 mi Calm Calm - N/A   Partly Cloudy
1:00 AM 54 °F 52 °F 89% 30.14 in 9 mi North 1.2 mph - -   Scattered Clouds
1:00 AM 53.6 °F 53.6 °F 100% 30.12 in 6.2 mi Variable 1.2 mph - N/A   Partly Cloudy
4:00 AM 53.6 °F 53.6 °F 100% 30.12 in - Variable 1.2 mph - N/A   Clear
5:30 AM 53.6 °F 53.6 °F 100% 30.12 in - Variable 2.3 mph - N/A   Clear
6:00 AM 55.4 °F 55.4 °F 100% 30.12 in - Variable 2.3 mph - N/A   Clear
6:30 AM 55.4 °F 55.4 °F 100% 30.12 in - Variable 1.2 mph - N/A   Clear
7:00 AM 56 °F 54 °F 93% 30.14 in 9 mi Calm Calm - -   Mostly Cloudy
7:00 AM 55.4 °F 55.4 °F 100% 30.12 in - Variable 1.2 mph - N/A   Clear
7:30 AM 55.4 °F 55.4 °F 100% 30.12 in - Calm Calm - N/A   Clear
8:00 AM 57.2 °F 55.4 °F 94% 30.15 in 6.2 mi Calm Calm - N/A   Partly Cloudy
8:30 AM 57.2 °F 55.4 °F 94% 30.15 in 6.2 mi Calm Calm - N/A   Partly Cloudy
9:00 AM 57.2 °F 55.4 °F 94% 30.15 in 6.2 mi Variable 1.2 mph - N/A   Partly Cloudy
9:30 AM 57.2 °F 57.2 °F 100% 30.15 in 6.2 mi Calm Calm - N/A   Partly Cloudy
10:00 AM 62.6 °F 60.8 °F 94% 30.15 in 6.2 mi Calm Calm - N/A   Partly Cloudy
10:30 AM 64.4 °F 60.8 °F 88% 30.15 in 6.2 mi Calm Calm - N/A   Partly Cloudy
11:00 AM 64.4 °F 60.8 °F 88% 30.18 in 6.2 mi Variable 2.3 mph - N/A   Partly Cloudy
11:30 AM 66.2 °F 59.0 °F 78% 30.18 in 6.2 mi Variable 1.2 mph - N/A   Partly Cloudy
12:00 PM 66.2 °F 59.0 °F 78% 30.15 in - North - - N/A   Partly Cloudy
12:30 PM 66.2 °F 59.0 °F 78% 30.15 in 6.2 mi South 8.1 mph - N/A   Partly Cloudy
1:00 PM 68 °F 55 °F 53% 30.16 in 10 mi SSW 6.9 mph - -   Scattered Clouds
1:00 PM 66.2 °F 57.2 °F 73% 30.15 in 6.2 mi SSW 6.9 mph - N/A   Partly Cloudy
1:30 PM 68.0 °F 57.2 °F 68% 30.15 in 6.2 mi SSW 5.8 mph - N/A   Partly Cloudy
2:00 PM 66.2 °F 55.4 °F 68% 30.12 in 6.2 mi SW 3.5 mph - N/A   Partly Cloudy
2:30 PM 66.2 °F 59.0 °F 78% 30.12 in 6.2 mi West 6.9 mph - N/A   Partly Cloudy
3:00 PM 66.2 °F 59.0 °F 78% 30.12 in - North - - N/A   Scattered Clouds
3:30 PM 66.2 °F 59.0 °F 78% 30.12 in 6.2 mi WNW 4.6 mph - N/A   Scattered Clouds
4:00 PM 66.2 °F 59.0 °F 78% 30.12 in 6.2 mi WNW 4.6 mph - N/A   Partly Cloudy
4:30 PM 66.2 °F 57.2 °F 73% 30.12 in 6.2 mi Variable 2.3 mph - N/A   Partly Cloudy
5:00 PM 66.2 °F 59.0 °F 78% 30.12 in 6.2 mi Variable 1.2 mph - N/A   Partly Cloudy
5:30 PM 64.4 °F 59.0 °F 83% 30.12 in 6.2 mi Variable 2.3 mph - N/A   Partly Cloudy
6:00 PM 62.6 °F 57.2 °F 82% 30.12 in 6.2 mi Variable 2.3 mph - N/A   Partly Cloudy
6:30 PM 60.8 °F 57.2 °F 88% 30.15 in 6.2 mi Variable 1.2 mph - N/A   Partly Cloudy
7:00 PM 58 °F 54 °F 83% 30.16 in - NNW 3.5 mph - -  
7:00 PM 57.2 °F 55.4 °F 94% 30.15 in 6.2 mi NNW 3.5 mph - N/A   Partly Cloudy
7:30 PM 57.2 °F 55.4 °F 94% 30.15 in 6.2 mi NNW 4.6 mph - N/A   Partly Cloudy
8:00 PM 55.4 °F 55.4 °F 100% 30.15 in 6.2 mi Calm Calm - N/A   Partly Cloudy
8:30 PM 55.4 °F 55.4 °F 100% 30.15 in - Calm Calm - N/A   Clear
9:00 PM 55.4 °F 53.6 °F 94% 30.15 in - Calm Calm - N/A   Clear
9:30 PM 55.4 °F 53.6 °F 94% 30.15 in - Calm Calm - N/A   Clear
10:00 PM 55.4 °F 55.4 °F 100% 30.18 in - Variable 2.3 mph - N/A   Clear
10:30 PM 55.4 °F 55.4 °F 100% 30.18 in 6.2 mi NW 3.5 mph - N/A   Partly Cloudy
11:00 PM 55.4 °F 55.4 °F 100% 30.18 in 6.2 mi Calm Calm - N/A   Partly Cloudy